Theta_e
353 353 353 353 353 355 355 355 356 356 357 355 355 355 353 353 353 352 352 352 352 351 352 351 352 351 353 352 352 352 353 353 353 354 355 356 358 360 357 357 357 357 357 357 358 358 358 357 357 357 357 357 356 356 357 357 356 356 356 356 355 355 354 355 355 355 355 355 355 355 356 355 355 356 355 355 355 355 355 351 351 350 350 350 349
354 354 353 353 353 355 356 354 355 356 356 355 358 356 354 354 351 350 350 350 350 354 352 351 351 351 352 352 352 352 353 353 353 354 355 357 357 360 359 357 357 357 357 356 357 358 358 357 358 357 357 357 356 357 356 356 356 356 356 356 355 354 355 355 355 355 355 356 355 355 355 355 355 356 356 355 355 355 355 352 350 350 349 349 348
354 355 354 353 354 354 354 354 354 355 357 355 359 358 355 355 351 351 351 351 351 354 350 351 351 350 354 351 352 353 353 354 354 354 355 357 357 359 361 358 358 358 357 357 357 357 358 357 357 357 357 357 357 357 357 357 357 356 356 355 355 355 354 354 355 355 355 355 355 356 356 355 355 355 355 356 355 355 355 352 349 349 348 348 348
356 356 355 354 354 354 354 354 354 355 359 357 359 360 358 356 355 355 353 352 352 351 351 349 349 350 352 351 352 353 353 354 353 354 355 356 357 357 359 361 359 358 358 357 357 357 357 357 357 357 356 356 356 356 356 356 356 356 355 355 355 355 354 355 355 355 356 356 356 356 356 356 355 355 356 355 355 355 354 352 349 349 349 347 347
356 357 361 354 354 354 354 357 356 357 359 360 360 359 360 359 358 356 352 351 352 352 353 348 348 349 350 351 352 352 353 353 354 355 355 356 356 357 358 359 361 361 358 358 358 357 357 357 357 356 356 356 356 356 356 356 356 355 355 356 355 355 355 355 355 356 356 356 356 357 356 355 356 355 355 355 355 354 353 351 350 348 347 347 347
357 357 357 354 354 354 355 356 356 357 360 360 358 355 356 356 358 356 360 355 353 353 350 348 347 348 349 350 352 353 353 353 353 354 355 355 356 356 357 358 359 359 361 360 358 358 358 358 357 356 356 356 356 356 356 356 356 355 356 355 356 356 356 356 356 356 357 356 356 357 356 356 355 355 355 355 354 353 353 351 350 348 347 348 346
358 357 355 354 354 355 355 356 358 360 358 358 357 355 355 356 359 356 354 353 353 356 350 349 347 347 348 351 351 352 352 352 353 353 354 355 356 356 357 357 358 358 360 360 362 361 359 358 358 357 357 357 356 357 356 356 356 356 356 356 357 357 357 357 357 357 357 357 357 357 357 356 356 355 355 355 354 353 352 350 349 348 347 347 346
358 357 355 355 355 355 356 357 360 358 356 356 358 356 352 353 356 354 355 354 355 353 355 350 347 346 348 350 351 353 351 352 352 352 353 355 355 355 356 357 357 357 360 360 360 360 360 360 359 358 358 358 358 357 357 357 357 357 357 357 358 357 358 358 358 358 358 358 358 357 357 356 356 356 355 354 353 352 350 350 349 349 348 347 347
358 358 356 356 356 356 357 359 361 357 355 352 353 357 355 355 355 359 354 352 350 351 349 351 348 347 347 347 349 353 351 352 351 352 353 353 353 354 354 355 356 359 359 359 359 359 358 359 360 360 360 359 359 358 358 359 358 358 358 359 358 359 359 359 358 358 358 358 358 357 357 357 356 356 355 354 353 352 351 350 349 348 349 348 347
358 358 357 357 357 357 357 359 359 356 355 353 353 354 352 354 354 354 355 352 353 351 349 345 345 345 346 346 348 351 351 351 352 355 353 352 353 353 354 355 355 356 357 358 358 359 358 358 359 360 361 360 360 360 359 359 360 360 360 359 359 360 359 360 359 358 358 358 358 358 357 357 356 356 355 355 353 352 351 351 350 349 349 349 347
358 359 357 360 357 357 358 359 358 356 355 354 352 356 356 351 353 354 356 355 354 354 349 345 345 345 344 345 346 348 350 350 353 355 353 352 353 354 353 354 354 355 356 357 357 357 357 357 358 358 359 357 359 360 360 360 360 360 360 360 360 359 359 358 359 358 358 358 357 357 357 357 357 356 356 355 353 355 353 353 351 349 349 349 348
358 358 358 359 357 357 357 358 358 356 354 353 352 352 353 352 348 356 352 355 355 354 348 347 344 344 349 349 347 347 348 350 352 352 354 353 353 357 355 354 354 354 355 356 357 357 357 357 357 356 356 357 357 359 359 360 361 361 361 360 360 359 359 358 358 358 358 358 357 358 358 357 357 356 356 356 356 356 354 353 353 352 349 349 349
359 358 358 360 357 356 357 357 357 356 354 353 353 351 351 352 356 358 354 350 349 345 345 344 344 345 343 342 344 346 351 352 349 349 350 352 353 354 356 356 355 354 355 356 356 356 357 357 356 356 356 356 356 356 358 359 359 360 361 361 361 360 359 358 358 358 358 358 358 359 359 359 358 357 358 358 358 357 356 355 354 353 351 349 349
361 358 358 358 355 355 356 356 356 355 355 355 354 357 359 355 354 351 353 349 347 346 344 344 339 338 339 338 341 340 348 353 348 348 348 350 352 354 355 354 354 354 355 355 356 356 356 357 357 356 356 356 356 356 356 357 357 356 358 359 360 361 362 362 362 361 360 359 358 360 359 359 358 357 358 358 358 357 357 356 355 354 352 350 349
361 360 357 357 355 355 355 356 355 356 355 353 354 355 354 354 353 351 350 352 354 346 343 343 340 339 340 339 333 332 343 342 343 345 347 348 349 350 352 352 353 355 356 356 356 356 356 357 357 357 356 356 356 356 356 356 357 359 359 359 360 361 362 362 362 362 362 362 361 361 360 359 359 358 358 359 358 357 356 356 356 355 354 354 352
360 359 358 356 355 354 354 355 355 357 354 353 352 353 353 352 352 355 350 344 342 344 350 347 342 342 337 332 331 332 330 335 334 339 340 344 346 347 349 350 352 354 356 355 355 356 356 357 356 357 356 356 356 356 356 356 355 358 360 362 362 362 364 365 365 365 364 364 363 362 361 361 360 360 359 359 358 357 357 357 356 356 356 355 353
359 359 359 356 355 354 354 354 355 355 355 353 352 353 353 352 352 354 349 347 343 342 345 347 343 346 340 335 334 331 330 333 332 339 339 342 342 343 347 349 349 352 353 354 355 355 355 355 357 357 357 357 356 356 356 356 356 357 358 359 360 359 360 363 365 365 365 365 364 363 362 361 361 361 361 360 359 359 359 358 357 357 356 356 355
359 359 359 356 354 354 354 355 355 356 356 354 354 354 353 354 355 356 351 348 347 341 340 350 345 349 341 342 342 334 334 335 333 334 338 343 342 342 342 345 348 350 353 352 352 353 355 355 356 356 357 357 357 357 356 356 357 357 358 357 358 358 358 359 360 363 364 365 365 365 364 362 361 360 360 360 360 359 359 358 358 357 357 356 356
359 359 358 358 355 354 354 355 355 356 358 355 354 354 355 355 356 355 354 355 347 344 340 340 346 347 348 346 349 346 342 339 336 332 332 337 337 339 340 340 343 346 348 349 350 351 352 354 354 354 355 356 357 357 357 357 357 359 360 362 361 361 360 358 358 360 362 364 364 365 365 364 362 361 360 360 361 360 360 359 358 357 357 357 357
359 359 358 357 355 354 354 355 355 356 359 357 356 356 357 358 358 355 355 356 350 347 343 340 347 342 352 348 346 348 345 340 338 336 336 331 334 336 336 336 341 343 346 346 347 349 350 352 351 350 352 353 355 355 356 357 357 357 357 355 358 359 358 357 358 360 362 364 365 365 366 366 365 363 361 361 361 361 361 360 359 358 358 359 358
361 359 358 357 358 355 355 355 355 356 361 358 358 357 358 357 358 355 355 355 351 348 348 345 339 342 341 340 342 344 341 340 340 341 337 331 331 331 335 338 339 341 342 343 345 347 349 350 350 351 353 353 353 353 354 356 356 357 357 356 358 359 359 357 357 359 361 363 365 365 366 366 366 365 364 364 363 362 362 361 360 360 360 360 360
360 360 359 358 358 358 356 355 356 356 361 360 359 358 357 357 357 357 355 356 354 355 351 348 342 342 343 342 338 341 341 339 337 339 335 333 332 331 334 333 335 341 341 341 343 343 345 347 348 347 349 352 352 352 353 354 355 354 354 355 357 359 357 356 356 359 360 361 363 364 365 366 366 366 365 364 364 364 363 362 361 361 361 361 360
359 360 360 360 359 359 357 357 358 360 362 361 360 359 357 357 357 357 356 355 354 356 360 354 347 346 344 345 344 339 340 336 336 337 334 334 334 334 333 335 334 333 342 340 348 344 344 345 345 345 349 350 352 352 353 353 353 353 355 355 355 355 355 355 355 357 358 356 359 361 363 364 365 365 365 365 365 365 365 364 363 363 363 362 362
358 359 359 360 360 359 360 359 359 360 361 362 362 360 359 357 357 357 356 355 355 357 355 356 353 349 348 344 342 340 341 341 340 339 340 339 337 334 333 337 339 336 338 342 344 343 344 343 344 345 346 348 351 353 353 354 354 354 355 356 354 354 355 356 356 356 355 354 354 356 359 361 362 362 362 362 361 361 361 361 361 361 360 359 359
356 357 358 359 360 359 359 358 359 360 361 361 362 361 359 357 357 356 356 356 356 356 354 354 353 351 349 347 346 343 343 344 343 341 339 340 337 333 335 335 339 339 344 342 343 343 344 346 346 345 346 348 349 352 352 352 353 353 354 356 353 353 353 353 354 353 353 352 352 353 354 355 356 355 354 354 355 356 357 359 359 359 359 359 358
355 356 359 359 360 360 361 360 360 360 361 361 361 361 360 357 357 357 356 358 357 356 356 355 353 351 349 346 345 345 344 344 343 343 341 341 339 336 336 339 337 338 340 346 345 345 349 346 347 350 349 348 349 349 351 350 351 353 354 355 354 351 352 352 353 352 351 351 351 352 353 354 356 356 355 354 355 357 357 357 358 358 359 359 358
355 357 359 359 360 360 360 360 359 360 361 361 361 361 361 358 359 358 359 358 358 357 356 355 354 353 351 350 349 347 346 347 343 344 345 345 344 341 338 335 335 334 338 339 339 342 342 347 349 350 350 354 353 352 352 351 351 353 356 358 357 351 350 349 350 350 348 348 348 349 350 352 352 352 352 355 356 357 357 356 356 356 356 356 355
355 356 357 359 359 359 360 360 360 359 360 360 360 360 359 358 357 358 358 360 358 357 357 356 355 355 354 352 352 352 353 351 351 350 348 348 346 342 344 342 338 335 335 337 336 344 343 348 353 353 355 355 356 355 353 353 355 356 358 360 359 356 351 348 349 348 347 345 346 347 348 349 350 350 352 353 355 355 356 355 354 353 353 353 352
353 356 356 358 359 359 359 360 360 360 359 360 360 359 358 358 357 356 357 359 360 358 357 357 357 356 355 354 355 354 353 353 353 354 353 348 345 344 345 344 342 341 335 334 335 339 347 346 344 357 353 356 358 359 358 358 357 357 358 358 358 359 352 346 346 345 345 345 345 345 346 347 348 349 350 350 351 351 352 352 351 351 351 351 351
353 354 355 356 357 362 359 359 360 359 359 359 359 359 358 357 357 357 357 359 359 360 359 358 358 357 357 356 354 355 356 355 355 354 356 354 350 347 345 344 346 345 339 334 335 335 343 345 344 352 358 356 357 360 360 362 357 358 360 359 357 358 349 344 345 345 345 344 343 342 343 344 345 344 344 345 346 348 349 349 350 350 351 350 348
353 353 353 354 356 358 359 359 359 359 359 359 359 358 358 357 357 356 357 358 358 358 359 359 358 358 357 356 355 355 355 355 355 354 356 355 354 349 347 343 345 349 342 338 337 344 338 346 350 349 351 355 355 357 361 363 360 359 361 361 361 355 351 356 349 346 345 344 343 342 342 342 340 339 341 343 344 345 346 348 348 348 347 344 343
350 351 352 353 355 356 357 358 358 358 358 359 359 359 357 357 357 356 357 357 356 357 357 358 358 358 357 356 356 356 356 355 355 354 354 356 352 350 349 345 345 342 342 342 341 343 346 344 348 351 351 353 359 359 362 362 361 357 362 362 363 357 362 363 355 350 347 345 344 343 341 339 336 338 340 342 343 345 346 347 345 343 340 340 339
349 349 350 351 353 355 356 358 357 358 358 358 359 359 358 357 356 357 357 356 356 356 357 357 357 358 358 356 356 356 356 357 357 356 355 355 354 351 350 349 347 345 345 345 344 345 349 346 345 350 353 355 358 357 359 360 362 363 360 364 365 363 364 365 365 354 347 345 344 342 340 338 336 337 339 341 343 344 343 340 338 336 335 336 334
348 349 349 350 352 354 355 356 357 358 358 358 358 358 357 357 356 355 355 356 356 356 356 356 357 357 357 357 356 356 356 356 356 356 356 356 355 354 353 351 349 348 346 347 345 345 346 350 352 353 353 356 357 358 358 358 360 361 361 363 365 365 364 365 366 367 349 346 343 341 340 339 337 337 338 338 339 338 337 335 333 330 332 331 329
347 348 348 350 351 352 354 355 356 357 357 357 358 358 358 357 356 356 356 356 356 355 354 356 356 357 356 356 356 356 355 356 356 356 356 356 356 356 355 353 353 352 349 348 348 346 346 350 348 350 355 357 357 360 361 359 360 359 359 363 362 363 364 364 365 364 352 345 343 342 342 340 339 336 335 334 333 331 330 328 327 326 327 325 325
344 348 349 350 350 351 351 353 355 356 356 356 357 357 357 357 357 357 357 356 356 356 355 355 355 356 356 356 355 356 356 355 356 356 356 356 356 356 355 354 354 354 354 350 349 350 349 349 352 353 356 355 359 358 357 358 358 361 362 363 364 363 363 363 364 364 357 345 345 343 342 341 338 334 331 330 328 327 326 325 325 323 323 324 323
343 345 348 350 350 350 350 351 352 354 355 356 356 356 357 357 357 357 357 357 357 357 356 356 357 356 356 355 356 356 356 355 355 354 355 356 356 355 355 355 355 355 355 355 353 350 350 350 352 353 351 353 356 356 356 358 360 361 361 362 361 361 363 361 362 363 354 349 350 348 344 342 337 334 331 329 327 326 326 325 323 322 320 319 318
340 342 345 347 348 349 350 351 351 352 354 355 355 355 356 356 357 357 357 357 357 357 357 357 357 357 356 356 356 356 356 355 355 355 356 355 355 355 355 355 355 355 355 355 355 354 352 352 352 352 354 354 356 357 358 359 358 357 359 361 362 362 361 361 363 362 363 364 363 362 351 346 335 330 330 329 327 326 325 324 324 322 320 317 315
340 339 341 344 347 347 348 350 351 352 352 354 354 355 355 356 357 357 356 356 357 356 357 357 357 357 357 356 356 356 356 356 355 355 356 356 355 356 356 357 356 354 354 354 354 353 352 352 352 352 353 354 353 355 358 355 357 357 356 356 357 360 361 360 362 362 362 363 358 352 350 347 341 335 325 325 326 326 325 324 323 322 320 318 317
342 341 340 340 343 346 346 347 349 351 352 353 353 354 355 355 356 356 356 356 356 356 356 357 357 357 357 357 356 356 356 357 357 357 357 357 357 356 357 356 356 355 354 354 352 352 351 350 350 352 353 353 354 353 354 355 356 356 355 355 353 356 358 359 361 358 360 363 362 360 352 348 343 338 332 331 330 328 326 327 329 327 322 319 319
342 343 343 342 341 342 344 345 346 347 349 351 352 353 353 354 355 355 356 356 356 356 356 356 356 357 357 357 357 357 359 360 358 357 357 358 357 356 357 356 356 355 355 354 354 353 352 350 350 351 349 350 352 352 352 353 354 353 356 353 354 356 355 354 358 360 359 362 360 358 357 355 348 344 342 341 338 333 330 329 329 327 323 320 319
341 343 343 344 343 342 342 344 345 345 346 347 347 339 343 353 354 354 355 356 356 356 356 356 355 356 356 356 358 361 360 359 354 351 348 350 356 357 358 357 356 356 355 354 353 352 352 350 350 350 349 349 351 353 352 353 355 355 354 354 352 354 352 352 354 358 359 360 358 358 357 356 346 342 340 337 334 334 333 331 327 325 322 321 321
342 342 343 342 342 343 343 343 343 345 346 346 337 332 333 337 351 354 354 355 356 356 356 356 355 355 355 356 357 359 362 363 359 349 347 345 346 348 351 357 359 357 355 353 352 353 351 350 352 351 350 350 352 354 353 353 354 354 355 354 353 351 350 346 347 353 356 361 359 358 355 354 349 340 338 336 333 332 330 328 324 323 321 321 321
343 342 341 341 342 343 343 344 343 344 346 339 331 330 331 331 338 353 354 354 354 355 356 355 355 356 355 355 355 356 358 360 361 362 355 347 342 343 343 345 348 352 352 356 355 354 352 351 351 351 351 351 353 354 353 352 355 355 354 351 350 352 351 348 347 347 357 359 359 356 353 352 348 341 337 336 333 331 327 326 323 320 320 320 320
344 343 342 341 341 342 343 343 343 344 345 336 329 328 329 329 330 342 353 354 353 354 355 355 355 355 356 355 355 356 355 359 360 360 360 360 348 340 341 343 345 344 339 340 345 357 358 355 353 353 353 354 353 354 356 357 357 356 352 349 349 349 351 350 350 350 357 360 358 354 352 351 348 341 338 337 334 332 328 325 323 321 319 319 318
345 343 343 342 342 342 342 342 344 345 345 336 328 325 326 327 328 334 352 353 354 354 354 355 355 355 355 355 355 355 356 357 359 359 359 359 359 358 354 352 352 353 346 339 337 339 347 355 356 354 356 358 354 356 359 359 356 354 354 352 352 350 349 350 354 354 357 359 357 353 351 349 345 341 338 336 335 332 331 325 322 321 319 318 317
345 344 343 343 342 343 342 342 343 343 344 333 326 324 323 323 326 331 349 352 353 353 354 354 355 355 355 355 356 355 356 355 357 357 358 358 358 357 357 355 354 354 355 355 353 351 350 350 353 356 358 360 359 359 360 362 359 359 359 358 357 355 353 351 353 354 355 358 357 353 349 351 345 340 338 337 335 334 332 326 323 321 319 318 318
347 347 346 345 344 343 343 343 342 342 344 329 324 323 322 322 324 337 346 350 351 352 353 353 354 355 356 356 355 355 355 355 353 344 351 357 357 356 355 355 355 355 355 354 343 346 355 355 355 355 356 357 348 359 360 359 360 358 356 356 354 352 349 349 348 351 353 356 356 354 350 349 346 338 337 337 336 334 334 334 326 323 321 319 318
346 346 346 345 346 345 345 344 343 343 344 334 323 321 320 320 324 340 345 348 350 351 351 353 354 354 355 356 355 355 355 355 347 333 335 352 356 354 354 353 354 353 354 356 341 333 334 333 333 336 335 334 333 331 330 334 351 354 355 351 350 351 348 345 347 348 351 354 354 355 351 348 345 341 335 335 334 333 331 331 332 325 322 320 317
347 347 347 347 347 347 346 345 345 344 345 338 322 319 318 318 327 342 344 346 348 349 351 353 354 354 355 358 358 355 354 355 338 331 330 343 354 354 353 352 351 351 352 354 354 350 331 328 328 329 330 331 332 332 332 331 330 345 353 348 352 353 350 349 346 350 350 349 353 354 348 346 345 342 337 335 334 333 330 331 332 330 325 324 318
349 350 350 349 348 348 348 347 344 345 346 340 323 319 317 316 326 343 345 346 346 348 349 350 353 353 354 356 357 353 352 348 333 329 327 339 352 353 354 352 350 351 352 355 354 354 355 352 351 348 346 342 344 345 347 338 335 346 352 353 355 353 351 351 350 348 345 350 355 352 348 346 341 341 340 333 332 334 333 331 331 331 331 331 331
Wind_Speed
4 3 4 4 3 3 3 3 3 2 2 2 2 2 2 2 2 2 2 2 2 3 3 3 2 2 3 3 3 2 2 2 2 2 1 0 0 1 2 1 1 1 1 2 2 2 2 1 1 1 1 1 0 1 1 2 3 3 3 3 4 5 5 7 7 8 9 10 11 10 10 11 10 10 10 11 11 11 11 11 10 9 9 8 8
4 3 4 3 3 3 3 2 2 1 2 1 1 0 1 1 2 2 2 2 2 2 2 3 2 2 2 3 3 2 2 2 2 2 1 0 0 1 1 1 1 1 1 2 1 1 1 1 1 2 2 2 1 2 2 2 3 3 3 4 4 5 6 6 7 8 9 10 10 11 10 10 10 9 10 10 10 10 10 10 9 9 8 8 8
3 3 3 3 3 3 2 1 1 1 1 1 0 0 1 1 1 1 2 2 1 1 2 2 2 2 2 3 3 2 2 2 2 1 2 1 1 1 2 2 2 1 0 0 1 2 2 2 2 1 2 2 1 3 3 3 3 3 4 4 5 6 6 6 7 8 9 9 10 10 10 10 10 9 10 9 9 9 10 9 8 8 7 7 7
4 3 3 3 3 2 2 1 0 0 0 0 0 0 1 1 2 1 1 2 1 1 1 2 2 2 2 2 2 2 2 2 2 2 2 1 1 1 1 2 2 2 1 2 1 2 2 2 3 3 2 2 2 2 3 3 3 3 4 5 5 6 6 7 7 8 9 10 11 10 10 9 8 9 9 9 9 8 8 8 7 7 6 6 5
3 3 2 2 2 2 2 1 1 1 0 0 1 2 1 2 2 2 2 1 2 1 1 1 2 2 2 2 2 2 2 2 2 2 3 2 2 1 1 1 2 2 3 3 3 3 3 4 4 3 3 2 3 3 3 3 4 4 5 5 6 7 7 8 8 9 10 10 11 10 10 9 8 9 8 8 8 8 8 8 7 6 6 5 5
3 3 3 2 2 2 2 2 0 1 2 2 1 1 1 2 2 0 1 2 2 2 2 2 1 1 1 2 2 2 2 2 3 3 2 2 2 1 1 1 1 1 2 3 4 4 5 5 4 3 3 3 3 4 4 4 5 5 5 6 7 7 8 9 9 10 10 10 10 10 9 9 9 9 8 8 8 8 7 8 7 6 5 5 4
3 3 2 3 2 2 2 2 0 2 2 2 1 1 1 1 1 1 0 1 1 2 2 2 2 2 2 2 2 2 2 3 2 3 3 3 2 2 1 1 1 1 1 1 3 4 5 5 5 4 4 4 4 5 5 5 5 6 7 7 8 8 9 9 10 9 9 10 9 9 9 9 9 8 8 8 7 6 7 7 7 6 5 4 4
4 4 3 2 2 3 2 1 2 2 2 2 1 1 1 1 0 0 0 2 2 1 2 2 1 2 1 2 2 3 3 2 3 3 3 2 3 3 2 2 2 2 3 2 2 3 5 6 6 6 6 6 6 6 6 7 7 7 7 8 9 9 9 9 10 10 10 10 10 10 9 9 8 8 8 7 6 6 7 8 7 7 5 5 4
5 4 4 3 3 3 2 2 2 2 1 1 1 1 1 0 1 2 1 1 1 2 1 2 2 2 2 2 2 2 3 3 3 3 2 3 3 3 3 3 4 6 5 4 3 2 3 6 6 7 8 7 7 7 7 8 8 9 9 9 9 10 9 9 10 10 10 10 10 10 9 9 9 8 8 8 7 7 7 6 7 7 7 6 5
5 5 4 4 3 3 2 3 3 2 1 1 1 1 1 1 1 1 1 0 0 1 3 1 2 2 1 1 1 2 2 2 3 3 3 4 3 4 4 3 3 3 4 5 5 3 3 5 7 8 9 8 8 7 8 8 9 9 10 10 10 10 10 9 9 10 10 10 9 10 9 9 9 9 8 8 8 7 7 6 6 7 7 7 6
5 5 4 4 4 3 3 3 3 3 2 1 0 0 0 2 1 0 1 2 0 1 0 2 3 2 2 0 0 1 1 2 3 3 3 3 3 4 3 3 3 3 4 4 4 5 5 4 3 3 4 8 8 9 9 10 10 10 10 10 10 10 11 11 11 11 10 10 10 9 9 10 10 9 9 9 9 8 7 8 7 8 7 7 8
5 5 4 4 4 3 3 3 3 3 2 2 2 0 1 1 3 2 2 2 3 1 2 3 2 3 1 1 1 3 3 3 3 3 3 3 3 3 3 3 3 4 4 4 3 4 4 4 5 5 5 5 8 9 10 10 10 10 10 11 11 10 10 11 11 10 10 11 11 9 8 10 10 10 9 9 7 6 7 7 7 7 7 7 8
4 5 4 4 3 3 3 3 3 3 3 3 1 1 0 1 1 2 1 1 2 1 2 3 3 2 3 3 3 1 3 4 5 4 5 4 3 3 3 3 3 3 3 3 4 4 3 4 3 3 3 4 5 7 9 9 10 10 10 11 11 11 11 11 11 11 10 11 11 9 8 8 9 9 9 8 7 7 8 7 7 7 8 8 8
4 4 4 5 4 3 3 4 4 3 2 1 1 1 1 1 1 0 2 1 0 1 1 2 3 1 2 4 4 4 0 2 2 3 3 3 3 3 3 4 4 4 3 3 3 4 4 3 3 3 3 3 3 3 4 4 6 8 10 11 12 12 12 12 12 12 12 12 12 10 8 8 9 10 9 9 8 8 7 7 7 8 9 9 8
4 4 4 4 5 4 4 4 4 4 3 2 2 2 1 1 1 1 0 1 2 1 2 2 2 0 2 2 3 5 4 3 2 3 3 3 3 4 4 4 6 4 3 3 3 3 3 3 3 4 4 4 3 3 3 4 6 8 9 9 11 12 13 13 13 12 12 13 11 10 9 9 9 10 10 9 9 10 9 9 9 9 8 9 10
4 4 3 4 5 5 3 4 4 4 4 3 2 2 2 2 1 1 1 1 2 1 0 2 2 3 2 2 2 1 4 4 4 5 2 2 3 4 3 4 4 3 2 4 4 3 3 3 4 4 4 3 3 3 4 4 7 9 10 10 10 9 11 12 13 13 13 13 12 11 10 10 10 10 11 12 12 11 10 10 9 9 9 10 11
4 4 4 4 4 4 4 3 3 4 3 3 2 2 2 2 3 2 1 2 2 2 1 1 2 1 5 1 2 3 1 3 4 4 3 2 3 4 4 5 5 3 3 4 3 3 3 4 4 3 4 4 3 4 4 4 4 5 6 9 9 9 10 11 12 13 13 13 13 11 11 11 11 11 12 12 12 12 11 11 10 10 10 11 11
4 4 4 4 4 4 4 4 4 4 3 3 2 1 2 3 3 2 2 1 2 3 1 2 2 2 3 3 2 2 2 2 2 4 5 2 3 3 4 4 4 4 4 4 4 4 3 4 3 4 3 3 3 4 4 4 4 4 4 5 10 9 9 11 12 13 13 14 13 13 12 12 11 12 12 12 13 13 12 11 11 11 11 11 11
4 4 5 4 4 4 4 4 4 3 4 3 2 3 2 2 2 2 2 2 2 2 1 2 1 1 1 2 1 1 3 1 3 0 5 5 3 2 3 3 4 4 4 5 4 4 3 3 4 4 3 3 3 3 4 4 6 7 9 10 10 9 10 10 11 12 13 14 14 13 13 13 12 12 12 12 13 13 12 12 12 11 12 12 11
5 5 5 4 4 4 4 4 4 3 4 4 3 2 1 1 2 2 2 2 2 2 1 1 1 2 2 2 1 1 1 1 3 3 2 3 7 4 2 3 2 3 4 5 4 4 4 4 4 3 3 3 3 4 4 4 4 5 5 8 10 11 11 11 11 11 13 14 14 14 14 14 13 13 13 13 13 13 12 12 12 12 12 12 13
5 5 5 5 5 4 4 4 3 4 4 3 3 3 3 2 2 3 3 2 2 2 2 2 3 3 1 1 2 2 2 2 1 1 3 2 5 2 5 4 2 2 2 3 4 4 4 4 4 4 4 4 3 4 4 4 4 4 6 9 10 10 10 11 11 11 13 13 14 14 14 14 14 14 14 14 13 13 13 13 13 13 12 13 13
6 6 5 5 5 4 4 5 4 4 4 4 3 3 3 3 3 3 3 3 2 2 2 2 2 1 2 1 1 2 2 1 2 2 3 1 3 6 5 5 6 5 2 2 3 4 4 4 4 5 4 4 4 4 4 4 4 4 6 9 10 10 11 11 12 12 13 13 13 14 15 15 15 14 14 14 14 14 13 13 13 14 13 13 13
6 6 6 5 5 5 5 5 4 4 3 4 4 4 3 3 3 3 3 4 3 3 2 1 2 2 2 2 3 3 3 2 3 1 1 2 2 4 4 1 2 6 4 3 4 3 3 4 4 5 4 5 4 3 4 4 5 6 9 10 11 11 12 12 12 13 13 13 13 13 14 15 15 15 15 14 14 14 14 13 14 14 13 13 13
6 6 6 7 6 5 5 4 4 4 4 3 3 3 3 3 3 3 3 3 3 3 3 3 2 2 2 2 2 2 2 3 2 3 3 2 2 4 4 4 1 3 5 6 3 3 3 3 3 4 4 4 4 3 4 4 5 8 8 9 10 11 12 12 13 13 14 14 14 14 14 14 15 15 14 14 14 15 15 15 15 16 16 16 15
7 7 7 7 6 6 5 4 4 4 4 3 3 4 4 3 3 4 3 4 4 4 3 5 4 4 3 2 2 2 4 2 2 2 0 2 2 2 1 1 1 4 3 2 3 4 1 3 3 3 3 4 4 4 3 4 4 4 7 7 10 11 12 12 13 13 13 14 15 15 14 14 14 14 14 14 13 13 14 14 15 15 16 16 16
7 8 5 5 7 6 4 5 5 4 4 4 4 4 4 4 4 4 4 3 3 4 4 4 3 2 2 2 2 2 3 2 2 2 2 1 1 3 3 1 1 3 3 3 2 3 2 3 3 2 2 3 3 3 3 4 4 5 7 7 8 11 11 12 12 13 13 14 14 14 14 13 13 14 13 13 13 14 14 13 13 14 15 15 15
6 6 5 6 6 5 5 5 4 4 4 4 3 4 4 3 3 3 2 3 3 3 3 4 4 3 3 4 3 2 3 2 2 3 2 2 2 3 2 4 4 2 3 2 3 0 2 4 2 3 2 3 3 3 3 3 5 7 8 5 5 10 11 12 12 12 13 13 13 13 13 13 13 13 13 12 12 12 12 12 12 12 13 13 12
5 5 6 6 6 6 5 5 5 5 5 5 4 4 4 4 3 3 4 2 3 4 4 3 4 4 4 3 2 3 2 2 2 2 3 2 3 2 2 3 1 5 3 4 4 2 1 3 2 1 2 4 4 3 3 4 3 5 6 4 4 5 9 10 11 11 12 12 12 12 12 12 12 12 11 11 12 12 12 12 12 12 12 11 11
6 5 6 6 6 6 6 5 5 5 5 5 5 4 4 4 4 4 4 3 4 5 3 4 4 3 3 4 4 3 2 1 1 2 2 2 2 2 3 2 3 3 4 4 4 2 2 0 2 2 2 3 5 3 4 3 3 4 3 3 4 4 7 10 11 11 11 12 11 11 11 11 10 11 10 10 10 10 11 11 11 12 11 11 11
5 5 6 7 6 7 6 6 5 5 6 5 5 5 5 4 4 4 4 3 4 3 4 4 4 3 3 2 2 3 2 2 2 1 2 1 2 2 2 2 2 2 2 2 4 2 3 2 2 3 4 6 4 5 3 4 4 5 3 3 4 4 9 11 11 10 10 10 10 10 10 10 10 10 9 9 8 9 9 9 10 10 10 12 12
5 6 6 6 6 6 6 6 5 6 6 6 6 5 5 5 4 4 4 4 4 4 4 4 4 4 4 4 3 3 2 3 2 1 1 1 1 2 2 2 2 3 3 2 2 3 2 3 3 2 2 5 4 4 4 3 4 5 4 4 4 7 9 8 10 10 10 9 9 9 9 9 9 9 9 9 9 9 9 9 10 10 11 11 10
6 6 6 6 7 7 6 6 6 6 6 6 6 6 5 5 5 4 4 4 4 5 4 4 3 4 3 4 3 3 2 2 2 1 1 1 2 2 2 2 1 2 3 3 3 5 3 4 4 5 4 4 5 5 5 4 4 4 4 4 5 7 5 5 8 9 9 9 9 10 10 9 10 10 9 9 8 9 9 9 9 9 8 8 10
6 7 7 7 7 7 7 7 7 7 6 6 5 5 5 5 5 5 4 5 5 5 4 4 3 3 4 4 4 3 2 3 2 1 1 1 2 2 3 3 2 3 4 4 3 5 4 2 2 4 3 3 4 1 5 5 6 5 5 4 4 4 5 4 5 7 10 11 11 10 9 10 10 9 8 9 9 9 8 8 9 10 12 11 11
7 8 9 7 6 7 7 7 7 7 6 6 5 5 5 5 5 4 4 5 6 5 4 5 4 3 4 4 4 3 3 3 2 2 2 1 2 2 3 3 3 4 3 3 3 2 6 2 4 2 3 1 4 1 3 6 7 5 6 6 4 3 4 4 4 4 10 10 10 9 8 9 11 9 9 10 10 9 9 10 11 12 11 10 11
7 8 8 7 8 8 8 8 8 7 7 7 6 6 6 7 6 5 5 6 6 6 5 6 5 4 3 4 5 3 2 3 3 2 2 2 1 2 3 2 3 3 3 4 3 4 5 5 2 3 2 1 2 5 4 3 4 3 5 5 5 5 4 4 3 3 7 9 9 8 10 11 11 10 11 11 11 12 12 11 12 11 11 10 10
7 7 7 8 7 8 9 8 8 8 8 7 6 7 7 7 7 7 6 6 6 6 6 6 5 5 5 5 5 4 3 4 4 3 2 2 2 2 3 2 3 4 3 3 5 4 2 5 3 3 3 4 4 3 3 3 3 3 2 4 4 4 5 4 3 3 5 8 8 9 10 11 10 11 13 12 12 12 11 11 11 11 10 10 10
8 7 7 7 8 8 8 9 9 8 9 8 8 7 7 6 7 7 7 7 7 7 7 7 6 6 6 6 6 4 4 5 5 4 3 4 3 3 4 3 3 3 2 4 4 4 4 5 5 3 2 2 3 3 1 3 2 2 1 3 4 4 4 4 3 3 3 4 5 8 9 10 11 13 13 12 11 11 11 10 10 10 10 10 10
9 8 9 7 8 9 9 9 9 9 9 8 9 8 7 7 7 7 6 7 7 7 7 7 6 6 7 7 6 5 6 6 6 5 4 5 4 4 4 4 3 3 3 3 3 3 4 5 4 5 2 3 3 3 1 0 3 5 4 3 4 3 3 4 3 3 3 3 3 4 5 8 12 12 12 11 10 10 10 9 9 10 10 10 10
9 8 8 9 8 9 9 8 8 9 9 8 8 8 8 7 7 7 7 7 7 6 7 7 7 7 7 7 7 7 7 7 7 7 6 5 4 5 6 5 4 4 4 4 3 4 4 4 4 4 5 2 2 5 1 0 2 3 3 3 3 2 3 3 3 2 3 2 2 2 6 9 10 8 9 9 9 10 9 9 10 10 10 10 10
9 10 9 10 9 8 9 9 9 8 8 8 8 8 8 7 7 7 7 7 7 7 7 7 7 7 8 8 8 8 8 8 8 7 6 6 5 6 5 5 4 5 5 4 3 4 4 4 4 5 3 4 3 3 2 2 3 1 1 1 4 4 5 3 2 3 2 1 3 3 4 7 8 9 8 8 9 8 8 8 10 9 9 10 9
10 10 10 9 9 9 9 9 9 8 8 8 7 7 8 8 8 8 8 8 8 7 7 7 7 7 8 7 8 8 8 10 11 10 9 7 6 6 5 5 5 5 5 4 4 3 4 4 5 3 4 5 4 4 5 4 4 5 1 1 2 3 2 3 5 0 1 1 2 2 3 2 4 4 3 3 4 5 6 6 6 9 9 9 9
10 9 9 10 9 10 10 10 9 8 9 7 11 15 13 9 9 8 7 8 8 7 7 7 7 8 9 8 8 13 12 13 13 13 13 12 12 9 7 6 6 5 5 5 4 4 4 5 5 5 5 5 5 4 4 4 3 2 3 1 3 2 1 2 3 1 0 1 1 1 3 1 4 4 3 3 3 4 3 4 5 6 6 8 8
10 9 9 11 11 10 11 10 10 8 8 8 15 16 17 17 11 9 9 9 8 8 8 8 8 8 8 8 7 10 12 13 12 14 13 13 13 14 14 11 8 7 6 6 6 5 5 6 5 4 5 6 6 4 5 5 3 4 4 2 3 2 1 2 4 3 1 2 0 1 2 1 3 4 3 3 2 3 3 3 4 5 6 6 7
11 10 11 12 11 10 9 10 10 9 10 13 16 17 18 18 15 11 8 8 7 8 8 8 8 7 7 7 7 6 7 9 8 8 10 13 14 14 14 13 12 12 11 9 7 5 6 6 6 6 5 6 6 4 5 3 5 4 3 3 3 3 2 2 2 3 1 2 1 1 1 2 2 4 4 2 2 2 3 2 3 4 4 5 5
11 11 12 12 12 12 11 12 12 12 10 14 17 18 18 18 19 15 9 9 8 8 9 9 9 8 7 6 6 6 7 13 11 9 7 8 11 15 14 14 13 13 14 14 12 10 6 6 7 7 7 5 6 7 6 5 2 4 2 2 2 3 3 4 4 3 2 3 0 1 1 2 2 3 4 2 2 2 1 1 2 3 3 4 5
11 12 12 12 12 12 12 13 12 11 12 14 18 19 19 20 19 16 11 10 9 9 11 9 8 8 9 7 7 7 7 7 7 8 8 8 7 6 7 7 7 10 13 14 15 15 12 8 7 8 8 5 9 10 8 4 4 6 4 5 3 3 4 5 5 4 2 2 3 1 2 2 3 4 3 3 2 2 1 0 1 1 2 4 5
12 13 13 12 12 12 12 13 11 11 11 17 17 19 20 20 20 16 11 10 10 11 11 11 11 10 10 8 9 8 8 7 7 9 8 8 7 6 7 7 8 8 8 8 9 8 8 8 9 9 9 8 9 9 8 4 7 6 5 5 4 4 2 1 2 3 4 3 3 3 4 2 3 3 3 4 3 2 2 2 2 1 2 4 6
10 10 9 10 12 13 13 13 11 13 12 17 18 19 21 20 21 11 9 12 12 10 11 12 11 10 10 10 9 9 10 10 11 14 12 8 6 7 8 7 7 7 8 10 13 11 9 8 8 9 9 11 11 10 8 5 4 3 1 1 1 1 1 3 5 0 3 1 6 5 3 2 3 3 3 4 3 2 1 1 2 3 3 5 6
10 10 12 10 11 12 13 12 13 13 13 15 17 19 20 21 14 9 9 10 11 12 13 12 11 11 10 10 10 8 9 10 12 14 14 12 7 8 8 7 7 7 8 7 12 15 14 13 13 14 15 15 15 14 12 9 6 2 2 2 5 3 4 7 7 5 6 3 5 6 3 3 4 3 4 3 2 2 2 1 0 1 2 3 5
11 11 10 10 11 11 13 13 13 13 12 15 17 18 20 19 17 11 10 9 11 12 12 12 10 10 12 16 14 11 11 12 14 15 15 12 8 8 8 7 8 8 9 7 5 7 13 14 14 15 15 15 15 14 12 11 9 5 5 8 6 3 5 5 8 4 1 1 4 5 4 3 3 3 4 2 1 2 2 1 1 1 2 1 3
11 10 10 10 11 10 11 13 17 16 13 15 17 19 21 20 17 12 11 11 11 11 9 12 11 10 10 12 17 16 13 14 16 15 15 12 9 9 8 8 9 9 9 7 6 5 4 4 5 5 8 10 9 7 8 10 10 9 9 9 4 5 6 5 6 6 6 6 5 8 6 3 4 3 4 3 3 2 2 2 2 1 0 1 1
Wind_Direction
92 86 88 86 81 74 68 67 62 50 51 36 42 41 39 41 44 49 57 63 58 69 81 94 109 117 114 124 128 133 135 140 144 155 171 256 257 262 163 178 96 75 34 61 29 39 334 68 236 128 194 230 353 67 53 339 12 27 17 14 7 2 7 6 359 357 355 359 1 15 5 8 15 20 25 26 25 28 31 36 39 41 43 41 41
110 105 103 103 96 86 75 53 62 44 63 38 39 64 92 64 45 50 53 50 50 58 80 89 114 128 119 129 146 154 151 155 162 177 176 242 301 303 256 190 243 20 55 27 23 5 246 248 241 240 258 246 289 336 343 347 6 6 351 354 347 354 1 355 352 350 352 353 353 1 2 5 15 18 23 23 24 23 29 35 36 40 42 42 40
118 123 113 113 106 97 85 71 39 41 67 56 143 159 145 134 117 110 96 94 97 29 90 96 86 121 140 142 150 147 156 161 172 185 190 204 268 310 312 226 221 226 183 8 332 327 319 288 290 273 253 283 305 311 337 342 337 338 339 339 341 346 351 346 343 346 345 347 348 357 358 1 11 14 21 20 18 22 26 34 33 36 40 39 40
126 114 118 122 129 119 107 99 285 352 88 55 58 167 175 125 107 92 102 102 88 68 76 104 104 124 140 150 142 154 162 177 188 197 212 211 255 300 319 322 247 209 236 235 251 256 283 296 280 285 295 293 305 321 326 328 320 320 327 334 332 338 336 335 333 336 340 345 344 350 358 356 6 11 18 14 15 18 21 27 30 30 34 34 35
141 136 130 127 128 141 118 181 274 321 57 94 66 41 77 84 84 98 80 67 103 97 94 81 121 142 144 147 153 164 172 187 202 207 209 214 227 262 303 332 335 299 221 239 252 239 252 258 262 268 288 307 313 310 306 307 309 311 322 321 323 322 325 326 333 335 340 339 342 347 350 353 360 9 11 9 9 14 16 15 21 19 20 25 27
140 138 127 135 148 158 192 257 204 100 105 94 66 24 56 76 113 82 183 143 154 133 124 127 64 81 154 146 168 177 177 201 211 218 219 223 228 252 275 313 320 325 326 259 247 257 253 253 263 269 283 295 299 296 298 304 314 316 312 311 311 311 318 325 328 330 332 334 338 343 346 351 357 1 1 0 5 7 6 4 8 12 10 9 16
148 146 142 140 156 178 190 236 97 134 108 97 114 49 57 70 149 254 55 113 137 152 155 152 145 175 193 172 181 173 189 211 217 225 226 227 236 246 260 283 273 288 297 293 316 295 277 265 269 277 278 283 287 289 293 295 301 305 305 308 308 313 319 320 321 321 325 329 332 337 343 347 349 350 351 353 1 360 357 355 354 359 351 349 352
155 151 153 179 169 186 198 163 153 115 89 93 85 79 61 96 272 137 2 28 13 36 125 139 171 204 199 191 183 182 193 210 218 226 225 222 232 236 238 241 243 267 252 256 262 274 284 276 278 285 285 279 281 288 295 301 303 306 306 304 308 313 315 315 317 320 325 325 328 331 335 338 339 340 341 342 342 346 343 348 346 340 337 330 325
163 159 165 174 182 187 184 153 153 108 100 92 90 76 79 71 52 46 31 96 34 335 348 129 159 191 178 186 190 185 202 210 218 219 207 214 226 231 235 233 246 246 245 244 244 250 280 282 280 279 279 281 288 290 292 293 296 296 302 305 304 308 313 313 311 314 316 317 319 321 325 327 331 332 329 330 332 335 339 335 334 330 325 315 305
161 160 162 173 171 176 172 155 148 121 115 76 70 63 62 100 102 30 29 125 191 70 309 70 108 134 148 186 207 199 208 224 238 220 206 214 221 227 226 226 234 235 246 249 250 247 255 263 270 273 274 275 276 278 281 284 286 290 294 300 303 305 306 305 310 313 312 313 312 316 319 321 321 323 323 322 322 324 324 325 322 321 315 310 299
157 157 154 170 160 164 160 166 144 136 125 80 62 339 7 67 80 84 284 255 174 312 12 124 115 109 121 194 247 254 227 228 230 239 223 227 227 232 215 229 226 231 239 243 248 254 256 259 259 263 270 277 280 281 281 283 285 287 291 293 296 297 300 305 308 308 308 308 308 308 312 313 314 314 316 314 314 321 323 319 318 312 310 302 295
158 154 158 160 166 165 158 164 155 133 137 164 217 164 266 15 12 29 2 38 45 70 144 115 85 82 69 26 208 200 205 204 219 228 233 229 231 235 237 226 223 238 236 236 240 245 247 250 263 269 272 270 271 273 275 278 284 288 289 291 294 295 295 298 301 304 304 304 304 305 302 301 303 304 305 306 300 292 289 289 293 298 300 297 293
156 149 159 162 156 142 158 170 164 151 164 202 179 174 125 105 47 22 27 92 63 75 103 108 71 360 4 16 340 276 228 196 211 214 219 221 215 230 231 239 236 232 235 234 239 242 243 245 245 254 259 272 271 269 274 279 280 279 280 282 285 289 292 296 297 297 298 297 297 294 292 294 297 295 295 291 290 282 278 276 278 282 288 289 284
160 156 154 161 156 166 180 190 179 182 173 170 185 203 173 110 107 13 14 97 47 39 191 67 29 101 38 337 341 330 271 209 230 241 235 228 222 229 229 243 247 239 228 230 237 238 243 244 247 251 251 252 261 275 277 275 275 277 281 282 282 282 283 283 286 291 293 296 298 298 292 286 288 290 289 285 283 286 281 277 272 269 278 281 278
163 162 152 171 173 165 187 183 186 182 176 201 209 204 183 173 113 132 6 28 66 19 51 75 136 119 99 50 6 357 328 354 328 265 241 226 216 236 237 246 252 244 232 237 241 243 245 244 247 247 251 251 260 263 268 270 272 277 274 273 274 277 280 281 282 284 285 288 293 296 291 282 277 281 282 280 276 279 278 275 271 266 261 265 274
169 167 157 171 170 179 159 182 188 183 176 179 197 209 173 153 139 108 137 97 28 93 188 115 127 129 18 33 248 93 350 345 328 303 338 293 246 243 241 253 261 254 231 245 248 244 247 242 248 250 253 255 259 260 264 263 274 277 278 279 276 272 275 280 281 281 282 284 285 285 286 285 280 277 278 281 282 281 277 274 270 266 262 264 275
169 171 168 166 166 163 171 173 171 183 153 176 195 204 176 172 159 124 92 149 84 60 4 58 96 37 141 107 353 22 230 266 328 293 349 312 262 259 249 252 257 255 247 255 257 250 255 251 247 252 251 255 252 255 259 264 272 275 280 280 279 281 281 280 281 282 282 282 282 281 281 281 280 280 281 281 281 281 278 274 271 267 263 260 265
170 173 177 162 173 174 168 168 171 178 180 171 159 158 182 167 176 153 146 328 129 84 34 45 73 98 95 129 159 123 316 293 23 326 320 243 302 271 261 262 261 257 248 256 253 260 245 258 253 254 251 248 253 254 256 260 259 264 263 270 277 275 276 277 278 281 281 282 282 281 280 279 278 278 278 279 279 278 275 272 269 267 264 261 258
179 177 175 178 173 173 175 178 175 168 185 160 184 201 204 189 149 148 170 134 88 95 188 264 358 66 102 120 109 118 158 62 321 238 341 321 319 306 283 265 259 256 254 252 259 265 258 255 261 263 263 256 255 256 258 260 261 264 264 269 270 267 271 273 273 274 278 280 281 279 277 276 276 276 275 275 275 275 273 272 270 267 265 261 253
179 178 177 182 174 178 177 176 178 174 187 187 193 186 178 176 162 146 143 148 127 122 188 141 153 273 6 39 23 93 97 108 144 219 217 284 312 319 254 278 263 244 252 264 259 257 267 257 260 265 265 260 249 255 257 258 256 259 265 265 268 269 272 273 273 269 272 277 278 277 276 276 276 275 275 273 272 272 272 272 271 269 266 261 257
182 179 185 183 188 181 178 180 182 184 190 187 175 173 183 164 164 138 158 153 143 127 111 181 175 208 107 345 62 30 31 56 119 117 175 178 284 292 306 318 301 262 259 259 261 253 254 256 253 260 254 251 239 242 250 253 254 254 262 263 261 264 268 273 273 270 270 271 273 275 274 273 273 274 274 273 272 271 271 272 273 272 270 267 264
197 194 187 189 189 181 186 191 195 185 193 178 166 169 172 178 185 178 159 163 158 152 170 175 183 164 214 153 43 14 3 9 47 60 41 64 264 304 315 330 334 307 320 295 274 265 254 252 254 255 255 253 244 241 242 250 252 258 257 257 264 268 274 276 276 273 273 273 273 274 275 274 274 273 272 274 273 273 272 273 275 275 273 268 269
194 199 195 189 190 190 192 198 190 192 187 171 182 187 186 189 182 174 171 177 180 180 211 137 131 157 175 185 186 220 240 275 298 198 203 233 306 296 305 266 262 318 296 321 290 269 251 251 257 266 260 268 258 253 248 252 256 252 262 267 273 276 278 280 280 279 279 279 278 275 275 277 277 276 277 278 278 279 280 280 280 278 276 275 275
197 202 207 205 202 202 202 194 194 187 193 181 180 187 185 177 178 177 184 177 168 172 197 201 177 148 194 190 196 153 137 196 202 168 193 228 170 274 287 308 304 224 286 311 282 295 293 275 270 272 273 273 274 260 262 261 264 265 275 280 282 283 283 282 280 279 279 280 280 280 280 282 283 284 285 286 287 287 286 284 284 284 284 283 282
205 206 211 202 204 211 208 196 198 195 190 180 184 173 177 182 181 187 176 182 185 181 188 219 190 190 200 207 172 170 222 229 152 170 243 122 162 298 276 152 265 308 306 358 332 316 328 306 299 291 298 292 285 276 269 270 273 276 272 277 277 278 278 279 280 281 280 279 281 283 284 285 285 285 285 285 286 286 286 286 284 284 284 283 281
195 207 191 191 210 212 199 207 204 193 188 187 184 179 173 182 187 190 193 185 169 185 207 216 201 189 155 154 200 203 237 181 196 171 191 181 292 252 278 311 166 286 299 335 330 340 336 348 341 308 304 299 294 293 282 280 280 273 267 274 280 276 277 280 282 284 284 284 286 287 287 286 285 288 290 290 290 289 289 292 291 290 291 291 291
196 196 178 182 191 190 197 202 201 195 188 190 191 176 173 174 190 206 205 172 181 186 210 207 220 198 184 189 203 213 241 199 176 218 195 209 217 213 182 321 334 358 342 314 330 279 299 294 319 351 22 351 331 305 292 282 276 276 278 272 279 284 285 288 289 290 291 293 293 293 292 292 292 292 293 291 290 289 292 297 297 296 296 301 305
193 181 189 181 184 192 195 201 190 194 191 191 188 178 171 177 196 195 213 175 176 193 210 208 228 223 212 179 191 230 217 211 195 216 215 224 222 165 143 118 69 340 329 344 348 311 289 328 312 273 350 9 334 315 290 287 284 283 286 282 282 292 293 293 296 298 300 301 301 300 299 299 299 298 295 295 296 300 302 305 310 313 316 317 318
188 185 184 186 186 187 193 200 191 185 189 191 186 181 171 181 191 199 215 191 181 195 191 203 224 221 215 200 212 227 239 204 216 232 220 194 174 176 170 166 159 67 334 331 303 315 318 11 310 299 1 333 333 321 315 297 292 295 291 284 286 284 298 300 303 304 304 304 304 304 305 306 305 304 303 306 306 312 318 318 322 328 326 328 331
182 182 181 185 191 194 193 197 195 182 190 189 185 183 177 185 192 204 223 187 195 186 190 195 213 204 223 218 203 226 221 218 242 205 211 167 151 179 193 189 168 36 172 307 296 218 277 295 210 296 323 331 329 322 320 300 310 303 294 291 295 297 308 305 303 304 306 307 308 310 312 312 312 312 319 329 331 329 328 329 330 331 331 342 341
183 183 184 193 193 200 196 197 192 195 189 191 183 182 181 191 189 207 213 198 200 205 189 188 198 193 205 218 201 230 225 243 241 233 226 157 148 156 156 130 219 126 148 147 3 282 167 293 291 222 280 303 317 308 306 288 317 323 309 311 308 316 315 311 311 312 314 316 318 322 324 322 324 335 345 351 349 345 346 347 348 349 354 348 352
189 185 188 193 197 199 202 202 201 198 193 193 187 183 181 195 192 198 203 193 213 222 215 187 189 187 197 220 222 223 223 222 244 258 244 165 156 168 149 158 155 132 134 149 183 272 222 234 275 291 272 281 298 304 311 312 314 319 316 321 320 320 322 314 319 322 331 339 344 343 337 339 352 357 2 1 358 1 2 3 7 13 15 12 19
183 187 194 199 198 205 205 211 211 208 203 196 188 181 184 194 198 199 190 192 209 224 223 221 194 186 195 217 227 219 193 225 238 245 245 170 165 169 155 160 162 158 164 163 237 274 282 221 248 272 297 310 303 253 312 312 321 331 332 311 322 334 323 318 321 340 355 356 352 346 349 2 8 16 16 15 18 19 25 35 38 41 42 34 31
186 193 199 192 195 199 206 215 219 214 208 204 189 182 188 190 204 195 196 193 201 220 208 231 219 200 195 216 232 218 187 220 235 234 238 223 200 191 192 186 200 201 189 179 217 242 283 283 273 252 273 176 284 247 303 321 318 334 329 322 334 344 319 324 330 349 357 355 352 350 0 25 35 32 31 38 47 53 53 48 50 52 47 42 44
194 200 198 191 192 197 209 217 220 221 215 203 192 189 195 194 195 200 199 193 200 202 208 217 219 207 217 219 241 223 181 220 220 230 206 227 189 219 229 190 206 214 183 202 180 251 275 284 243 295 265 274 246 291 297 276 289 302 307 320 332 323 320 320 333 352 355 352 348 352 17 33 36 38 57 65 64 63 62 60 60 58 57 55 52
189 201 196 192 188 194 205 213 216 221 218 210 198 198 201 197 198 199 196 200 205 210 210 210 207 198 213 230 238 222 218 234 241 229 208 198 197 201 222 213 209 217 195 181 212 227 250 286 265 242 271 291 266 248 260 272 283 307 311 304 303 319 320 324 343 359 349 349 340 1 20 36 43 63 73 71 69 67 66 66 65 65 65 62 57
193 189 193 185 191 195 203 207 213 217 218 211 207 205 205 200 202 200 199 201 205 210 212 210 211 200 206 218 226 210 206 227 238 233 213 215 207 201 215 209 208 209 194 198 204 200 225 258 278 252 256 269 268 287 266 310 314 294 302 312 313 314 311 320 340 350 336 345 335 354 26 50 61 74 74 73 71 70 71 72 71 69 65 58 52
191 188 190 185 192 200 204 206 208 217 218 214 213 214 209 202 202 204 202 203 207 207 210 210 209 205 215 217 217 203 203 216 231 228 210 219 206 211 219 216 210 199 208 212 203 208 219 245 257 289 230 275 301 271 283 94 329 325 324 325 308 319 324 334 352 349 357 2 354 15 45 76 75 73 76 75 74 76 76 72 69 63 58 54 48
196 193 191 191 195 196 203 200 205 211 217 216 217 217 215 209 207 206 207 209 208 208 210 212 211 211 214 215 212 204 209 210 219 220 212 210 205 218 214 217 203 202 218 215 203 214 222 244 254 241 274 256 243 293 18 99 259 250 289 308 315 307 319 326 332 10 353 357 306 26 63 75 85 84 80 78 80 80 75 68 64 58 53 46 42
205 203 197 198 197 193 198 200 205 202 207 215 219 219 216 212 208 211 211 211 212 212 212 210 211 213 215 219 218 212 211 211 212 215 203 216 199 224 213 206 204 207 221 214 209 214 228 235 242 268 250 285 281 251 273 294 297 285 182 265 315 322 332 319 297 322 336 331 346 19 89 114 114 113 103 83 66 62 61 65 53 50 44 39 34
205 205 205 201 199 202 201 200 200 197 198 208 212 212 212 214 212 214 212 214 214 216 216 213 209 211 216 218 222 221 218 221 214 219 217 208 202 218 215 190 204 210 220 225 223 222 237 243 262 245 267 274 266 285 303 293 260 284 287 86 279 288 299 310 303 96 216 352 329 351 59 91 108 86 72 65 54 56 52 49 56 48 37 32 30
208 203 203 204 204 206 206 205 201 198 205 206 213 213 211 211 209 215 215 217 217 219 220 218 216 213 216 217 223 226 223 225 227 226 226 222 219 219 220 180 199 199 215 228 227 228 236 246 249 255 264 263 267 253 260 249 261 253 268 228 271 293 274 258 260 236 165 191 309 16 76 110 114 93 65 67 53 36 43 36 32 30 28 26 29
209 206 204 207 210 210 209 207 204 205 205 207 207 208 212 212 210 213 215 218 215 216 218 220 224 218 218 219 222 228 229 232 232 229 231 229 228 230 230 219 201 195 205 214 228 220 224 238 244 238 242 266 267 254 248 269 249 247 257 230 242 266 294 354 316 308 176 196 294 268 93 95 119 105 78 72 62 52 49 46 17 27 26 28 26
208 205 208 211 213 213 212 211 212 211 214 211 202 204 208 210 211 214 212 217 213 213 213 217 224 222 222 218 219 214 220 224 227 230 231 233 232 234 235 234 228 220 214 213 225 227 218 233 241 237 239 243 264 248 255 241 252 231 219 211 215 232 259 245 221 259 178 176 235 256 119 107 113 111 106 88 79 75 53 27 22 24 29 27 25
205 205 211 211 213 213 213 215 218 216 219 210 203 201 204 207 210 212 219 217 216 215 213 216 220 223 224 221 223 214 219 222 224 225 224 230 228 232 237 239 239 233 232 232 229 232 228 224 233 246 227 241 251 249 219 229 186 243 181 210 210 210 217 246 246 258 274 180 239 255 222 144 158 129 114 114 115 109 126 95 4 27 27 33 28
203 211 214 214 215 213 213 216 220 220 220 214 201 201 202 204 207 206 221 217 219 222 221 216 217 218 220 219 219 226 216 214 218 217 216 223 223 216 222 223 228 237 235 232 236 238 236 233 231 240 248 198 244 254 248 190 201 245 221 245 223 240 219 232 238 232 241 163 247 166 262 187 156 142 134 140 136 144 151 274 303 21 16 30 32
201 208 212 215 218 218 219 218 220 223 224 215 202 200 202 202 204 200 214 219 223 226 226 224 222 219 220 217 221 226 227 215 209 209 211 215 213 217 219 222 223 227 224 228 226 222 218 222 229 236 247 241 245 251 258 209 223 243 231 250 236 237 251 342 298 244 258 206 196 166 252 147 153 159 154 156 159 160 171 220 255 354 25 31 33
207 208 209 213 217 219 222 221 222 228 229 216 205 202 201 202 199 192 204 217 221 225 227 226 223 222 220 219 219 223 232 231 223 212 213 210 207 218 223 228 232 229 230 229 229 229 225 216 216 228 235 241 243 246 247 236 225 228 240 242 86 164 248 262 266 168 253 165 198 189 222 201 169 177 153 154 161 165 184 233 198 262 357 24 28
213 208 211 207 212 214 218 217 221 229 234 221 208 206 203 201 189 192 202 211 219 223 228 226 225 222 219 217 216 219 224 231 226 212 212 208 210 216 224 232 234 240 245 236 221 226 231 231 230 232 238 245 250 253 256 253 237 167 151 226 245 203 230 263 270 266 262 194 198 210 197 227 171 172 149 163 177 174 183 201 275 211 303 354 17
219 217 213 216 216 213 214 215 215 222 230 222 207 209 206 198 188 192 200 204 215 220 227 229 226 225 222 216 212 219 225 230 224 214 207 196 211 215 221 230 238 242 249 245 234 216 220 229 235 241 246 252 257 261 258 247 228 196 196 231 231 175 230 238 268 256 273 219 219 173 184 235 139 156 146 136 187 231 192 205 242 239 253 240 22
223 223 219 220 221 218 214 216 216 218 229 226 206 207 205 197 193 202 199 204 212 217 218 228 226 225 227 223 220 220 222 228 225 218 203 189 206 210 213 222 234 242 243 246 235 238 218 213 235 232 251 246 244 241 246 240 205 202 211 227 224 211 238 235 246 270 276 257 201 166 208 191 163 179 160 154 227 192 216 214 231 254 319 355 19